DW8295 Weather Reports


Display with metric or nautical units.
time (UTC)temp
F
wind
direction
speed
MPH
gust
MPH
rain 1hr
in
rain 24hr
in
rain mn
in
humidity
%
barometer
mb
20260901105810 58 329 0.0 0.0 0.00 0.00 0.00 92 1017.0
20260901105310 58 329 0.0 1.0 0.00 0.00 0.00 93 1017.0
20260901105025 58 328 0.0 1.0 0.00 0.00 0.00 93 1017.0
20260901104532 58 332 0.0 0.0 0.00 0.00 0.00 93 1016.7
20260901103808 58 332 0.0 0.0 0.00 0.00 0.00 94 1016.7
20260901103307 58 332 0.0 0.0 0.00 0.00 0.00 94 1016.6
20260901102803 58 332 0.0 0.0 0.00 0.00 0.00 94 1016.5
20260901102301 58 332 0.0 0.0 0.00 0.00 0.00 95 1016.4
20260901101800 58 331 0.0 3.0 0.00 0.00 0.00 95 1016.3
20260901101523 58 327 0.0 3.0 0.00 0.00 0.00 95 1016.2
20260901100753 58 315 0.0 3.0 0.00 0.00 0.00 95 1016.3
20260901100248 58 312 0.0 3.0 0.00 0.00 0.00 95 1016.5
20260901095741 57 282 0.0 3.0 0.00 0.00 0.00 95 1016.5
20260901095235 57 281 0.0 3.0 0.00 0.00 0.00 95 1016.5
20260901094730 57 271 0.0 3.0 0.00 0.00 0.00 96 1016.3
20260901094224 56 265 0.0 2.0 0.00 0.00 0.00 96 1016.3
20260901093718 56 265 0.0 1.0 0.00 0.00 0.00 95 1016.3
20260901093211 56 265 0.0 1.0 0.00 0.00 0.00 95 1016.3
20260901092925 56 263 0.0 2.0 0.00 0.00 0.00 95 1016.5
20260901092208 56 264 0.0 2.0 0.00 0.00 0.00 95 1016.4
20260901091708 56 241 0.0 1.0 0.00 0.00 0.00 95 1016.5
20260901091208 56 241 0.0 0.0 0.00 0.00 0.00 95 1016.6
20260901090705 55 241 0.0 0.0 0.00 0.00 0.00 95 1016.6
20260901090207 55 241 0.0 0.0 0.00 0.00 0.00 95 1016.7
20260901085706 55 241 0.0 0.0 0.00 0.00 0.00 95 1016.7
20260901085423 55 241 0.0 0.0 0.00 0.00 0.00 95 1016.6
20260901084705 55 241 0.0 0.0 0.00 0.00 0.00 94 1016.5
20260901084651 55 241 0.0 0.0 0.00 0.00 0.00 95 1016.6
20260901083705 55 241 0.0 0.0 0.00 0.00 0.00 95 1016.5
20260901083202 56 241 0.0 0.0 0.00 0.00 0.00 95 1016.5
20260901082701 56 241 0.0 1.0 0.00 0.00 0.00 95 1016.5
20260901082201 55 241 0.0 2.0 0.00 0.00 0.00 95 1016.5
20260901081701 55 241 0.0 2.0 0.00 0.00 0.00 94 1016.6
20260901081424 55 216 0.0 1.0 0.00 0.00 0.00 94 1016.5
20260901080701 55 216 0.0 0.0 0.00 0.00 0.00 94 1016.5
20260901080419 55 216 0.0 0.0 0.00 0.00 0.00 94 1016.6
20260901075702 55 216 0.0 0.0 0.00 0.00 0.00 94 1016.7
20260901075201 55 216 0.0 0.0 0.00 0.00 0.00 94 1016.7
20260901074657 55 216 0.0 0.0 0.00 0.00 0.00 94 1016.7
20260901074419 56 216 0.0 0.0 0.00 0.00 0.00 94 1016.7
20260901073916 56 216 0.0 0.0 0.00 0.00 0.00 94 1016.8
20260901073157 56 216 0.0 0.0 0.00 0.00 0.00 94 1016.9
20260901072658 56 216 0.0 0.0 0.00 0.00 0.00 94 1016.9
20260901072157 56 216 0.0 0.0 0.00 0.00 0.00 94 1016.9
20260901071918 56 216 0.0 0.0 0.00 0.00 0.00 94 1016.9
20260901071420 56 216 0.0 0.0 0.00 0.00 0.00 94 1016.9
20260901070658 56 216 0.0 0.0 0.00 0.00 0.00 94 1016.9
20260901070153 56 216 0.0 0.0 0.00 0.00 0.00 94 1016.8
20260901065653 56 216 0.0 0.0 0.00 0.00 0.00 94 1016.7
20260901065153 56 216 0.0 0.0 0.00 0.00 0.00 94 1016.7
20260901064654 56 216 0.0 0.0 0.00 0.00 0.00 94 1016.7
20260901064153 56 216 0.0 0.0 0.00 0.00 0.00 94 1016.8
20260901063653 57 216 0.0 0.0 0.00 0.00 0.00 94 1016.8
20260901063152 57 216 0.0 0.0 0.00 0.00 0.00 94 1016.8
20260901062653 57 216 0.0 0.0 0.00 0.00 0.00 94 1016.9
20260901062153 57 216 0.0 0.0 0.00 0.00 0.00 94 1016.8
20260901061649 57 216 0.0 0.0 0.00 0.00 0.00 94 1017.0
20260901061149 57 216 0.0 0.0 0.00 0.00 0.00 94 1017.0
20260901060649 57 216 0.0 0.0 0.00 0.00 0.00 94 1017.1
20260901060149 57 216 0.0 0.0 0.00 0.00 0.00 94 1017.0
20260901055649 57 216 0.0 0.0 0.00 0.00 0.00 94 1017.0
20260901055151 57 216 0.0 0.0 0.00 0.00 0.00 94 1016.9
20260901054651 57 216 0.0 0.0 0.00 0.00 0.00 94 1016.8
20260901054150 57 216 0.0 0.0 0.00 0.00 0.00 94 1016.9
20260901053650 57 216 0.0 0.0 0.00 0.00 0.00 94 1016.9
20260901053144 57 216 0.0 0.0 0.00 0.00 0.00 94 1016.9
20260901052638 57 216 0.0 0.0 0.00 0.00 0.00 94 1016.8
20260901052131 57 216 0.0 0.0 0.00 0.00 0.00 94 1016.8
20260901051626 58 216 0.0 0.0 0.00 0.00 0.00 94 1016.9
20260901051120 58 216 0.0 0.0 0.00 0.00 0.00 94 1016.8
20260901050839 58 216 0.0 0.0 0.00 0.00 0.00 94 1016.9
20260901050107 58 216 0.0 0.0 0.00 0.00 0.00 94 1016.9
20260901045601 58 216 0.0 0.0 0.00 0.00 0.00 94 1016.9
20260901045055 58 216 0.0 0.0 0.00 0.00 0.00 94 1017.0
20260901044550 58 216 0.0 0.0 0.00 0.00 0.00 94 1017.0
20260901044043 58 216 0.0 0.0 0.00 0.00 0.00 94 1016.9
20260901043538 58 216 0.0 0.0 0.00 0.00 0.00 94 1017.0
20260901043031 58 216 0.0 0.0 0.00 0.00 0.00 93 1017.0
20260901042526 58 216 0.0 0.0 0.00 0.00 0.00 93 1017.1
20260901042240 58 216 0.0 0.0 0.00 0.00 0.00 93 1017.1
20260901041513 58 216 0.0 0.0 0.00 0.00 0.00 93 1017.1
20260901041006 59 216 0.0 0.0 0.00 0.00 0.00 93 1017.1
20260901040726 59 216 0.0 0.0 0.00 0.00 0.00 93 1017.1
20260901035956 59 216 0.0 0.0 0.00 0.00 0.00 93 1017.1
20260901035451 59 216 0.0 0.0 0.00 0.00 0.00 93 1017.2
20260901034943 59 216 0.0 0.0 0.00 0.00 0.00 93 1017.2
20260901034439 59 216 0.0 0.0 0.00 0.00 0.00 94 1017.2
20260901033931 59 216 0.0 0.0 0.00 0.00 0.00 93 1017.1
20260901033425 59 216 0.0 0.0 0.00 0.00 0.00 93 1017.1
20260901032921 59 216 0.0 0.0 0.00 0.00 0.00 93 1017.1
20260901032414 59 216 0.0 0.0 0.00 0.00 0.00 93 1017.1
20260901031908 59 216 0.0 0.0 0.00 0.00 0.00 93 1017.3
20260901031402 60 216 0.0 0.0 0.00 0.00 0.00 93 1017.3
20260901030857 60 216 0.0 0.0 0.00 0.00 0.00 93 1017.2
20260901030350 60 216 0.0 0.0 0.00 0.00 0.00 93 1017.3
20260901025843 60 216 0.0 0.0 0.00 0.00 0.00 92 1017.2
20260901025337 60 216 0.0 0.0 0.00 0.00 0.00 92 1017.2
20260901024832 60 216 0.0 0.0 0.00 0.00 0.00 92 1017.2
20260901024325 60 216 0.0 0.0 0.00 0.00 0.00 92 1017.2
20260901023820 60 216 0.0 0.0 0.00 0.00 0.00 92 1017.2
20260901023314 61 216 0.0 0.0 0.00 0.00 0.00 91 1017.2
20260901022809 61 216 0.0 0.0 0.00 0.00 0.00 91 1017.1
20260901022305 61 216 0.0 0.0 0.00 0.00 0.00 91 1017.2
20260901021756 61 216 0.0 0.0 0.00 0.00 0.00 91 1017.1
20260901021250 62 216 0.0 0.0 0.00 0.00 0.00 91 1017.1
20260901020743 62 216 0.0 0.0 0.00 0.00 0.00 91 1017.1
20260901020237 62 216 0.0 0.0 0.00 0.00 0.00 91 1017.1
20260901015732 62 216 0.0 1.0 0.00 0.00 0.00 91 1017.1
20260901015457 62 216 0.0 1.0 0.00 0.00 0.00 91 1017.0
20260901014719 62 216 0.0 1.0 0.00 0.00 0.00 91 1017.0
20260901014213 62 216 0.0 1.0 0.00 0.00 0.00 91 1017.0
20260901013708 62 216 0.0 1.0 0.00 0.00 0.00 91 1017.0
20260901013202 62 216 0.0 0.0 0.00 0.00 0.00 90 1017.0
20260901012655 62 216 0.0 0.0 0.00 0.00 0.00 90 1017.0
20260901012150 62 216 0.0 0.0 0.00 0.00 0.00 90 1017.1
20260901011645 62 216 0.0 0.0 0.00 0.00 0.00 89 1017.1
20260901011139 63 216 0.0 0.0 0.00 0.00 0.00 89 1017.1
20260901010631 63 216 0.0 0.0 0.00 0.00 0.00 89 1017.2
20260901010125 63 216 0.0 0.0 0.00 0.00 0.00 89 1017.2
20260901005619 63 216 0.0 0.0 0.00 0.00 0.00 89 1017.1
20260901005114 63 216 0.0 1.0 0.00 0.00 0.00 89 1017.1
20260901004608 63 216 0.0 1.0 0.00 0.00 0.00 89 1017.1
20260901004102 63 216 0.0 1.0 0.00 0.00 0.00 89 1017.1
20260901003556 63 216 0.0 1.0 0.00 0.00 0.00 88 1017.0
20260901003050 64 215 0.0 1.0 0.00 0.00 0.00 89 1017.1
20260901002543 64 215 0.0 2.0 0.00 0.00 0.00 89 1017.1
20260901002037 64 215 0.0 2.0 0.00 0.00 0.00 89 1017.1
20260901001532 64 215 0.0 2.0 0.00 0.00 0.00 89 1017.0
20260901001223 64 216 0.0 3.0 0.00 0.00 0.00 88 1017.0
20260901001112 64 216 0.0 2.0 0.00 0.00 0.00 89 1016.9
20260901000013 64 217 0.0 3.0 0.00 0.00 0.00 88 1017.0
20260831235508 64 215 0.0 3.0 0.00 0.00 0.00 88 1016.9
20260831235002 64 219 0.0 3.0 0.00 0.00 0.00 87 1016.9
20260831234456 64 219 0.0 4.0 0.00 0.00 0.00 87 1016.9
20260831233949 64 219 0.0 4.0 0.00 0.00 0.00 87 1017.0
20260831233443 64 219 1.0 4.0 0.00 0.00 0.00 86 1017.1
20260831232937 64 220 1.0 5.0 0.00 0.00 0.00 85 1017.2
20260831232432 64 227 1.0 5.0 0.00 0.00 0.00 85 1017.2
20260831231926 65 251 0.0 3.0 0.00 0.00 0.00 85 1017.3
20260831231422 65 250 1.0 3.0 0.00 0.00 0.00 84 1017.4
20260831230921 65 226 1.0 5.0 0.00 0.00 0.00 84 1017.3
20260831230421 65 190 1.0 5.0 0.00 0.00 0.00 84 1017.4
20260831225920 65 200 0.0 3.0 0.00 0.00 0.00 83 1017.4
20260831225421 65 200 1.0 5.0 0.00 0.00 0.00 82 1017.3
20260831224919 66 200 2.0 5.0 0.00 0.00 0.00 81 1017.2
20260831224419 66 161 2.0 6.0 0.00 0.00 0.00 81 1017.2
20260831224143 66 173 2.0 6.0 0.00 0.00 0.00 80 1017.2
20260831223418 66 197 2.0 7.0 0.00 0.00 0.00 79 1017.3
20260831223138 66 171 2.0 8.0 0.00 0.00 0.00 79 1017.4
20260831222417 66 168 2.0 8.0 0.00 0.00 0.00 79 1017.3
20260831221917 66 219 2.0 8.0 0.00 0.00 0.00 79 1017.3
20260831221414 66 220 3.0 9.0 0.00 0.00 0.00 78 1017.4
20260831221133 66 170 3.0 9.0 0.00 0.00 0.00 78 1017.4
20260831220415 66 240 3.0 9.0 0.00 0.00 0.00 78 1017.3
20260831215915 67 177 4.0 10.0 0.00 0.00 0.00 78 1017.3
20260831215415 67 186 3.0 10.0 0.00 0.00 0.00 76 1017.4
20260831214916 67 168 2.0 10.0 0.00 0.00 0.00 76 1017.4
20260831214411 67 180 3.0 11.0 0.00 0.00 0.00 75 1017.4
20260831213904 67 186 3.0 11.0 0.00 0.00 0.00 75 1017.3
20260831213358 67 219 2.0 8.0 0.00 0.00 0.00 74 1017.4
20260831212852 67 175 2.0 8.0 0.00 0.00 0.00 74 1017.5
20260831212346 67 176 4.0 12.0 0.00 0.00 0.00 74 1017.5
20260831211839 67 145 4.0 12.0 0.00 0.00 0.00 72 1017.7
20260831211336 68 175 4.0 11.0 0.00 0.00 0.00 72 1017.6
20260831210836 68 188 4.0 11.0 0.00 0.00 0.00 71 1017.6
20260831210337 68 166 5.0 14.0 0.00 0.00 0.00 71 1017.6
20260831205837 68 156 5.0 14.0 0.00 0.00 0.00 71 1017.7
20260831205601 69 140 4.0 11.0 0.00 0.00 0.00 70 1017.8
20260831204835 69 171 4.0 11.0 0.00 0.00 0.00 67 1017.8
20260831204334 69 196 4.0 11.0 0.00 0.00 0.00 68 1017.8
20260831203835 69 211 4.0 10.0 0.00 0.00 0.00 65 1017.8
20260831203334 69 169 4.0 11.0 0.00 0.00 0.00 67 1017.7
20260831202834 69 161 4.0 14.0 0.00 0.00 0.00 63 1017.7
20260831202335 69 152 3.0 14.0 0.00 0.00 0.00 65 1017.7
20260831201836 69 185 3.0 13.0 0.00 0.00 0.00 64 1017.7
20260831201334 69 195 4.0 13.0 0.00 0.00 0.00 66 1017.7
20260831200834 69 221 4.0 16.0 0.00 0.00 0.00 66 1017.7
20260831200334 69 171 5.0 16.0 0.00 0.00 0.00 65 1017.8
20260831195836 69 128 6.0 14.0 0.00 0.00 0.00 66 1017.8
20260831195335 69 206 6.0 12.0 0.00 0.00 0.00 65 1017.9
20260831194829 69 134 4.0 12.0 0.00 0.00 0.00 66 1017.9
20260831194323 69 257 5.0 15.0 0.00 0.00 0.00 68 1018.0
20260831193822 69 171 6.0 15.0 0.00 0.00 0.00 69 1018.0
20260831193322 69 162 5.0 13.0 0.00 0.00 0.00 67 1018.1
20260831192822 70 126 4.0 13.0 0.00 0.00 0.00 64 1018.1
20260831192322 70 191 5.0 15.0 0.00 0.00 0.00 65 1018.1
20260831191822 70 173 5.0 15.0 0.00 0.00 0.00 62 1018.1
20260831191322 70 175 5.0 13.0 0.00 0.00 0.00 60 1018.1
20260831191044 70 173 5.0 10.0 0.00 0.00 0.00 59 1018.1
20260831190320 70 170 4.0 11.0 0.00 0.00 0.00 64 1018.2
20260831185820 71 190 4.0 11.0 0.00 0.00 0.00 63 1018.1
20260831185320 71 163 4.0 8.0 0.00 0.00 0.00 65 1018.2
20260831184820 71 190 3.0 8.0 0.00 0.00 0.00 62 1018.2
20260831184320 71 151 3.0 11.0 0.00 0.00 0.00 63 1018.2
20260831184041 71 215 4.0 11.0 0.00 0.00 0.00 63 1018.1
20260831183318 72 149 3.0 11.0 0.00 0.00 0.00 61 1018.3
20260831182818 73 188 2.0 9.0 0.00 0.00 0.00 57 1018.2
20260831182318 72 138 3.0 7.0 0.00 0.00 0.00 56 1018.2
20260831181820 72 132 3.0 12.0 0.00 0.00 0.00 57 1018.2
20260831181319 72 144 4.0 12.0 0.00 0.00 0.00 58 1018.4
20260831180819 72 156 3.0 12.0 0.00 0.00 0.00 56 1018.4
20260831180319 73 167 2.0 7.0 0.00 0.00 0.00 52 1018.4
20260831175815 73 199 2.0 7.0 0.00 0.00 0.00 54 1018.5
20260831175316 73 178 2.0 6.0 0.00 0.00 0.00 55 1018.4
20260831174815 72 207 3.0 6.0 0.00 0.00 0.00 57 1018.4
20260831174316 72 156 3.0 8.0 0.00 0.00 0.00 55 1018.6
20260831173814 72 186 3.0 8.0 0.00 0.00 0.00 55 1018.6
20260831173314 72 150 3.0 7.0 0.00 0.00 0.00 51 1018.5
20260831172815 73 178 3.0 7.0 0.00 0.00 0.00 51 1018.5
20260831172538 73 152 2.0 6.0 0.00 0.00 0.00 53 1018.6
20260831171815 72 173 2.0 5.0 0.00 0.00 0.00 56 1018.5
20260831171316 72 175 3.0 9.0 0.00 0.00 0.00 55 1018.6
20260831170814 72 152 3.0 9.0 0.00 0.00 0.00 54 1018.7
20260831170314 72 165 3.0 8.0 0.00 0.00 0.00 54 1018.6
20260831165814 72 175 3.0 8.0 0.00 0.00 0.00 57 1018.7
20260831165536 72 169 3.0 6.0 0.00 0.00 0.00 54 1018.8
20260831164814 71 155 3.0 6.0 0.00 0.00 0.00 55 1019.0
20260831164535 71 159 3.0 6.0 0.00 0.00 0.00 55 1019.0
20260831163808 71 138 3.0 6.0 0.00 0.00 0.00 56 1019.1
20260831163309 71 142 3.0 7.0 0.00 0.00 0.00 57 1019.1
20260831162809 72 98 2.0 7.0 0.00 0.00 0.00 53 1019.1
20260831162308 72 190 1.0 5.0 0.00 0.00 0.00 55 1019.1
20260831161809 71 143 2.0 5.0 0.00 0.00 0.00 58 1019.1
20260831161309 71 150 2.0 5.0 0.00 0.00 0.00 57 1019.0
20260831160809 71 62 2.0 5.0 0.00 0.00 0.00 57 1019.0
20260831160309 71 44 2.0 5.0 0.00 0.00 0.00 59 1019.0
20260831155808 71 59 1.0 5.0 0.00 0.00 0.00 57 1019.0
20260831155529 71 84 1.0 4.0 0.00 0.00 0.00 54 1019.1
20260831154808 71 87 1.0 4.0 0.00 0.00 0.00 56 1019.1
20260831154758 70 104 1.0 5.0 0.00 0.00 0.00 56 1019.1
20260831154037 69 335 2.0 6.0 0.00 0.00 0.00 55 1019.2
20260831153309 69 62 2.0 6.0 0.00 0.00 0.00 56 1019.2
20260831152810 69 78 2.0 6.0 0.00 0.00 0.00 58 1019.2
20260831152525 69 89 2.0 6.0 0.00 0.00 0.00 58 1019.2
20260831152250 68 47 1.0 4.0 0.00 0.00 0.00 58 1019.3
20260831151301 68 70 1.0 4.0 0.00 0.00 0.00 58 1019.5
20260831150802 68 88 1.0 4.0 0.00 0.00 0.00 58 1019.4
20260831150258 68 146 1.0 4.0 0.00 0.00 0.00 58 1019.4
20260831145757 68 52 1.0 4.0 0.00 0.00 0.00 58 1019.4
20260831145252 68 51 1.0 4.0 0.00 0.00 0.00 58 1019.5
20260831144745 68 51 1.0 5.0 0.00 0.00 0.00 58 1019.6
20260831144239 68 5 0.0 5.0 0.00 0.00 0.00 59 1019.7
20260831143736 68 76 1.0 4.0 0.00 0.00 0.00 60 1019.8
20260831143227 68 77 2.0 4.0 0.00 0.00 0.00 62 1019.7
20260831142721 68 39 2.0 4.0 0.00 0.00 0.00 59 1019.8
20260831142215 68 38 1.0 3.0 0.00 0.00 0.00 59 1019.6
20260831141709 68 34 1.0 3.0 0.00 0.00 0.00 59 1019.7
20260831141203 68 33 1.0 5.0 0.00 0.00 0.00 58 1019.8
20260831140657 67 313 1.0 7.0 0.00 0.00 0.00 58 1019.7
20260831140152 67 317 1.0 7.0 0.00 0.00 0.00 59 1019.8
20260831135906 67 346 1.0 4.0 0.00 0.00 0.00 59 1019.8
20260831135140 67 41 1.0 4.0 0.00 0.00 0.00 60 1019.8
20260831134633 67 12 1.0 5.0 0.00 0.00 0.00 60 1019.7
20260831134127 66 317 2.0 5.0 0.00 0.00 0.00 59 1019.7
20260831133621 66 336 2.0 5.0 0.00 0.00 0.00 59 1019.7
20260831133115 66 336 2.0 5.0 0.00 0.00 0.00 61 1019.6
20260831132610 66 336 1.0 5.0 0.00 0.00 0.00 59 1019.6
20260831132103 66 350 1.0 5.0 0.00 0.00 0.00 62 1019.6
20260831131558 66 333 1.0 5.0 0.00 0.00 0.00 64 1019.4
20260831131051 65 344 0.0 5.0 0.00 0.00 0.00 67 1019.3
20260831130547 65 344 1.0 6.0 0.00 0.00 0.00 67 1019.4
20260831130040 65 300 2.0 6.0 0.00 0.00 0.00 67 1019.4
20260831125533 65 333 2.0 5.0 0.00 0.00 0.00 70 1019.4
20260831125028 64 351 2.0 4.0 0.00 0.00 0.00 69 1019.3
20260831124521 64 355 2.0 6.0 0.00 0.00 0.00 70 1019.3
20260831124015 64 313 2.0 6.0 0.00 0.00 0.00 70 1019.4
20260831123509 64 355 1.0 8.0 0.00 0.00 0.00 72 1019.2
20260831123004 64 333 2.0 8.0 0.00 0.00 0.00 73 1019.2
20260831122729 63 329 1.0 8.0 0.00 0.00 0.00 74 1019.2
20260831122002 63 323 1.0 6.0 0.00 0.00 0.00 76 1019.2
20260831121500 62 322 1.0 6.0 0.00 0.00 0.00 78 1019.1
20260831120957 62 355 1.0 5.0 0.00 0.00 0.00 79 1018.9
20260831120455 61 351 1.0 5.0 0.00 0.00 0.00 80 1019.0
20260831115954 61 351 1.0 4.0 0.00 0.00 0.00 83 1019.3
20260831115454 60 300 0.0 4.0 0.00 0.00 0.00 85 1019.3
20260831114954 59 355 0.0 5.0 0.00 0.00 0.00 88 1019.4
20260831114454 58 0 1.0 5.0 0.00 0.00 0.00 90 1019.4
20260831113953 57 25 1.0 4.0 0.00 0.00 0.00 92 1019.4
20260831113447 56 347 0.0 4.0 0.00 0.00 0.00 93 1019.3
20260831112941 56 346 0.0 1.0 0.00 0.00 0.00 93 1019.3
20260831112918 56 346 0.0 0.0 0.00 0.00 0.00 93 1019.2
20260831111930 56 346 0.0 1.0 0.00 0.00 0.00 93 1019.2
20260831111422 55 346 0.0 1.0 0.00 0.00 0.00 92 1019.1
20260831110915 55 346 0.0 1.0 0.00 0.00 0.00 92 1019.1
20260831110409 55 346 0.0 1.0 0.00 0.00 0.00 92 1019.0